Temperature
22 21 21 20 20 20 22 24 25 25 24 23 23 22 22 21 20 19 18 18 19 19 18 18 19 19 19 19 19 19 19 19 19 19 19 19 18 19 19 19 18 18 18 18 18 18 18 18 18
22 22 21 20 21 21 23 25 25 25 24 23 23 22 21 20 19 18 18 19 19 19 19 18 19 19 19 19 19 19 18 18 19 19 19 18 18 18 18 18 18 18 18 18 18 18 18 18 18
22 21 21 20 21 22 24 25 25 25 25 24 23 22 21 20 19 19 19 19 19 19 19 19 19 19 19 19 19 18 18 18 18 18 18 18 18 18 18 18 18 18 18 18 18 18 18 18 18
22 21 21 21 23 25 25 25 26 25 25 24 23 22 21 20 20 19 19 19 19 19 19 19 19 19 19 19 18 18 18 18 18 18 18 18 18 18 18 18 18 18 18 18 18 18 18 18 18
22 22 21 22 24 26 26 27 26 25 25 23 22 21 20 20 20 20 19 19 19 19 19 19 19 19 19 19 19 19 18 18 18 18 18 18 18 18 18 18 18 18 18 18 18 18 18 18 18
22 21 22 23 26 27 27 27 26 25 24 23 22 21 20 20 20 19 19 19 20 19 19 19 19 19 19 19 19 19 19 19 19 18 18 18 18 18 18 18 18 18 18 18 18 18 18 18 18
23 22 23 25 26 27 27 27 26 25 24 23 22 20 19 19 20 20 20 20 19 19 19 19 19 19 19 19 19 19 19 19 19 18 18 18 18 18 18 18 18 18 18 18 18 18 18 18 18
24 22 24 25 26 27 28 28 27 26 25 23 23 21 20 19 20 19 19 19 19 19 19 19 19 19 19 19 19 19 19 19 19 18 18 18 18 18 18 18 18 18 18 18 18 18 18 18 18
25 23 24 26 27 27 28 27 27 26 25 24 23 22 21 20 19 19 19 19 19 19 19 19 19 19 19 19 19 19 19 19 19 18 18 18 18 18 18 18 18 18 18 18 18 18 18 18 18
25 23 25 27 28 28 28 28 27 26 24 23 22 22 21 20 20 19 19 19 19 19 19 19 19 19 19 19 19 19 19 19 19 18 18 18 18 18 18 18 18 18 18 18 18 18 18 18 18
26 26 28 29 30 29 28 28 27 25 23 23 22 21 20 20 20 20 20 20 20 20 19 19 19 19 19 19 19 19 19 18 18 18 18 18 18 18 18 18 18 18 18 18 18 18 18 18 18
28 28 30 30 30 29 29 28 27 26 25 24 24 22 21 21 20 20 20 20 20 20 19 19 19 19 19 19 19 19 19 19 18 18 18 18 18 18 18 18 18 18 18 18 18 18 18 18 18
28 29 30 30 30 30 29 28 27 26 25 24 23 22 22 21 21 21 21 20 20 20 20 19 19 19 19 19 19 19 19 19 19 18 18 18 18 18 18 18 18 18 18 18 18 18 18 18 18
28 29 29 30 30 30 29 28 27 25 24 24 23 22 22 22 22 21 21 21 20 20 20 20 19 19 19 19 19 19 19 19 19 19 18 18 18 18 18 18 18 18 18 18 18 18 18 18 18
29 27 28 28 29 29 28 27 26 25 24 23 23 23 22 22 22 22 22 21 21 21 20 20 20 19 19 19 19 19 19 19 19 19 18 18 18 18 18 18 18 18 18 18 18 18 18 18 18
27 26 26 28 29 29 27 25 26 25 24 24 23 23 23 22 22 22 22 22 21 21 20 20 20 20 19 19 19 19 19 19 19 19 18 18 18 18 18 18 18 18 18 18 18 18 18 18 18
25 25 26 27 29 29 27 26 26 25 25 24 24 23 23 23 22 22 22 22 22 21 21 20 20 20 20 19 19 19 19 19 19 19 19 19 19 18 18 19 18 18 18 18 18 18 18 18 18
25 25 26 27 28 28 27 26 26 26 26 25 24 24 23 23 23 23 22 22 22 21 21 21 20 20 20 20 19 19 19 19 19 19 19 19 19 19 19 19 18 18 18 18 18 18 18 18 18
26 26 26 27 28 27 27 26 26 26 26 25 24 24 23 23 23 23 23 22 22 21 21 21 20 20 20 20 19 19 19 19 19 19 19 19 19 19 19 19 18 18 18 18 18 18 18 18 18
27 26 26 27 28 28 27 26 26 26 26 26 25 24 24 23 23 23 22 22 22 22 21 21 21 20 20 20 20 20 19 19 19 19 19 19 19 19 19 19 19 19 18 18 18 18 18 18 18
26 26 26 27 27 27 26 25 25 26 26 26 25 25 24 24 23 23 23 22 22 22 22 21 21 21 21 20 20 20 19 19 19 19 19 19 19 19 19 19 19 19 19 18 18 18 18 18 18
26 27 28 27 25 24 25 23 24 24 24 25 25 25 24 24 24 23 23 23 23 23 22 22 21 21 21 20 20 20 20 20 20 19 19 19 19 19 19 19 19 19 19 19 18 18 18 18 18
27 28 28 27 25 24 24 23 22 23 23 24 24 24 24 24 24 24 23 23 23 23 23 22 22 21 21 21 20 20 20 20 20 20 19 19 19 19 19 19 19 19 19 19 18 18 18 18 18
28 26 25 23 22 23 24 23 22 22 23 24 24 25 24 24 24 24 23 23 23 23 22 22 22 22 21 21 21 20 20 20 20 20 20 19 19 19 19 19 19 19 19 19 18 18 18 18 18
26 23 22 22 21 22 23 23 22 23 24 24 24 25 25 24 24 24 23 23 23 22 22 22 22 22 21 21 21 21 20 20 20 20 20 20 19 19 19 19 19 19 18 18 18 18 18 18 18
25 23 22 22 22 22 23 23 23 24 24 25 25 25 25 24 24 24 24 24 23 23 23 22 22 22 22 21 21 21 20 20 20 20 20 20 20 20 19 19 19 19 18 18 18 18 18 18 18
26 24 22 21 22 22 22 22 23 23 23 24 24 24 25 25 24 24 24 24 23 23 23 23 22 22 22 21 21 21 20 20 20 20 19 20 20 20 19 19 19 19 18 18 18 18 18 18 18
26 24 21 21 21 22 22 22 22 23 22 22 22 23 24 24 24 24 23 23 23 23 23 22 22 22 22 22 21 21 21 20 20 20 19 19 19 19 19 19 19 18 18 18 18 18 18 18 18
26 24 21 19 20 21 21 22 23 22 22 22 22 23 23 24 24 24 23 23 23 23 22 22 22 22 21 21 21 21 21 20 20 20 19 19 19 19 19 19 19 18 18 18 18 18 18 18 18
25 24 21 21 21 19 20 21 23 22 22 22 22 22 23 23 23 23 23 23 23 22 22 22 21 21 21 21 21 20 20 20 20 19 19 19 19 19 19 18 18 18 18 18 18 18 18 18 17
Wind_Speed
11 8 4 1 2 3 3 3 7 8 6 8 11 11 9 7 5 7 5 11 12 10 12 16 18 19 20 20 20 20 20 20 20 19 19 18 18 17 17 16 16 15 14 14 13 12 12 12 11
7 5 2 1 3 3 2 4 9 10 12 13 12 11 9 8 8 11 8 12 13 11 13 16 19 19 20 20 20 20 19 19 19 18 17 17 16 16 15 15 15 14 13 12 12 12 11 10 10
6 3 1 2 1 3 5 6 11 12 12 9 7 7 6 7 10 8 10 15 12 10 13 17 20 20 20 19 19 19 19 18 18 17 17 16 15 15 14 14 13 12 12 11 11 11 10 9 9
3 1 1 1 2 4 7 9 13 13 9 9 10 8 6 6 7 11 17 16 14 10 13 17 20 19 19 19 19 18 18 18 17 16 16 15 14 14 13 13 12 11 11 10 10 9 8 8 7
1 2 2 1 2 3 7 12 13 11 6 9 12 9 6 6 16 19 17 16 14 10 12 16 19 19 18 18 18 17 17 17 16 15 14 14 13 13 12 11 11 10 10 9 9 8 7 6 6
1 2 2 1 3 4 6 11 13 14 13 12 12 9 5 11 18 18 17 14 14 12 11 15 18 18 17 17 17 16 16 15 15 14 14 13 13 12 11 11 10 10 9 8 8 8 6 5 5
2 1 2 3 3 6 7 9 11 13 13 10 11 8 7 12 16 17 16 14 12 12 10 10 14 15 16 16 16 16 15 15 14 14 13 13 12 12 11 10 10 9 8 8 7 7 6 5 4
3 1 0 1 5 5 7 6 9 13 11 14 10 9 9 14 16 16 14 13 12 10 9 8 10 11 13 13 15 15 14 14 13 13 12 12 11 11 10 10 9 9 8 7 7 6 5 4 4
2 1 2 5 6 5 8 9 7 8 11 7 5 8 15 21 19 16 13 11 10 11 8 8 8 9 11 11 13 13 13 13 12 11 11 10 8 8 9 9 10 9 8 8 7 6 5 5 5
5 4 7 6 7 7 10 12 9 8 11 8 12 14 20 20 20 19 16 15 13 12 10 9 8 8 9 10 10 10 10 10 9 9 9 8 8 8 8 9 10 9 9 8 8 7 7 6 5
5 6 4 3 6 9 9 11 8 13 9 14 21 22 21 20 18 18 17 16 15 14 13 11 10 9 8 6 8 7 7 8 8 9 9 8 7 7 7 7 7 8 8 7 7 6 6 6 6
2 4 3 3 4 7 9 9 8 9 12 19 24 25 21 19 17 17 16 15 14 14 14 12 11 9 8 8 7 6 5 6 6 9 10 8 4 4 5 5 6 6 6 5 5 5 6 7 8
2 2 2 3 3 6 8 9 9 9 17 20 22 21 20 18 16 14 14 14 14 14 13 13 12 10 8 7 6 6 6 6 8 9 10 9 5 4 4 4 6 6 6 6 5 5 5 5 6
3 5 5 3 1 6 11 9 8 12 21 22 22 20 19 19 17 14 13 13 13 13 13 12 12 10 9 7 6 5 7 7 8 8 10 10 8 5 5 4 4 5 7 7 6 5 4 4 4
3 5 7 3 1 3 10 6 9 19 22 21 20 19 18 17 17 17 17 15 14 14 13 12 12 10 9 9 7 6 7 7 6 7 10 10 9 7 6 4 4 4 6 6 4 4 3 3 3
4 3 4 6 0 2 8 6 9 19 21 20 19 19 17 16 17 17 17 15 14 14 13 13 13 11 10 8 6 5 6 6 6 8 9 9 10 9 6 4 4 5 5 4 3 2 2 2 2
2 1 5 7 3 2 4 6 12 17 19 18 18 18 17 15 14 15 17 16 15 15 14 13 11 11 10 8 6 4 5 5 6 7 7 8 9 10 6 4 4 5 3 2 3 2 2 2 3
5 4 4 6 4 1 2 5 12 16 17 18 17 16 16 17 17 17 17 17 15 14 14 13 11 11 9 7 4 3 3 4 4 5 7 8 8 9 7 4 4 4 3 2 2 2 2 2 3
6 5 6 8 6 1 4 4 11 14 13 14 14 15 16 16 13 14 16 16 15 13 12 12 11 11 8 6 5 4 4 4 3 4 7 8 8 8 6 4 3 3 3 4 4 2 2 2 1
5 5 6 7 6 2 3 4 8 14 16 17 18 18 17 14 12 14 14 15 15 15 14 12 12 12 10 7 6 4 4 3 4 3 5 8 8 7 6 4 4 4 3 3 3 3 2 1 1
5 5 5 4 5 4 2 3 3 6 6 8 12 14 16 18 18 17 16 16 15 16 16 14 12 11 11 9 5 4 2 1 2 3 3 5 7 7 6 5 4 4 4 3 4 4 4 2 2
6 6 4 2 1 3 1 1 5 5 2 6 8 10 13 15 15 16 17 17 18 17 15 13 13 12 11 10 8 7 6 6 6 5 5 5 6 6 6 5 5 5 4 4 4 4 3 3 2
6 4 2 2 2 2 1 3 6 2 3 7 8 9 11 13 16 17 18 18 17 16 15 13 13 12 11 10 10 9 7 6 4 4 5 5 5 5 6 6 5 5 4 4 4 3 4 3 3
2 3 5 4 3 2 6 5 5 4 7 8 9 11 11 12 13 14 14 13 12 13 13 13 13 13 12 12 10 10 9 7 6 6 6 5 4 4 5 5 5 5 4 5 5 4 5 4 4
3 4 3 4 3 6 4 4 6 6 7 8 9 10 11 11 11 10 11 13 14 15 14 14 14 13 13 12 11 11 10 9 9 8 7 7 5 4 6 6 5 5 5 5 4 4 4 5 4
4 9 8 6 6 6 2 4 5 5 5 4 5 6 8 10 11 11 12 14 15 16 15 15 15 14 14 13 12 10 10 8 7 7 7 8 7 6 6 6 6 6 6 6 4 4 4 4 4
4 4 9 7 3 1 4 3 4 2 1 1 1 3 5 8 10 10 10 10 11 14 15 16 16 14 14 14 12 10 10 8 7 8 7 6 6 6 6 6 6 6 6 6 5 4 5 4 4
5 6 5 5 4 3 4 3 4 3 2 1 2 3 3 4 7 9 9 9 9 10 11 12 13 13 12 12 12 11 10 9 8 7 7 6 6 5 5 6 6 6 6 5 5 4 4 4 4
2 2 4 4 5 6 4 6 5 8 7 6 5 4 4 4 5 7 8 8 8 8 9 10 11 10 10 11 10 10 9 9 8 7 7 7 6 6 6 6 6 6 6 5 5 5 5 4 4
3 3 5 4 4 5 5 7 4 7 7 6 5 4 3 3 2 4 6 6 6 8 8 9 10 10 10 10 9 9 8 8 7 7 7 6 6 6 6 6 6 6 6 6 6 6 5 5 5
Wind_Direction
166 162 157 154 44 49 77 92 105 96 74 72 80 83 83 68 98 126 144 137 133 133 135 131 127 125 123 121 119 116 115 115 115 115 115 116 117 117 118 119 119 119 117 116 115 114 113 113 111
160 164 159 52 64 74 89 107 96 103 124 112 88 84 79 73 87 114 131 138 135 135 135 133 129 128 127 124 122 121 119 118 118 118 119 119 119 120 121 122 122 122 122 122 122 122 121 119 118
168 179 120 67 120 153 138 124 111 112 122 109 97 76 80 108 117 130 144 140 132 130 135 136 133 130 129 128 126 126 125 124 123 122 123 124 125 125 126 126 126 126 126 127 128 128 127 125 125
155 134 57 76 146 177 147 143 124 116 98 90 100 83 83 114 127 136 139 136 130 128 133 138 136 133 132 132 131 131 130 129 129 128 129 131 133 132 132 130 129 129 131 132 133 134 133 132 133
85 104 48 28 111 128 136 136 132 119 107 103 101 99 87 98 121 132 137 137 134 133 137 140 139 138 137 135 135 136 135 135 135 136 136 137 138 137 137 135 135 135 137 140 142 142 140 142 145
123 99 77 88 106 119 132 130 119 112 115 113 109 109 106 129 132 139 139 138 137 137 138 143 143 141 140 139 140 141 142 141 141 142 143 143 144 144 144 141 141 143 145 147 148 151 154 161 165
153 127 163 152 123 130 140 133 127 132 134 136 129 109 124 144 143 142 140 138 139 138 137 141 146 145 143 142 143 146 148 147 147 147 147 148 149 150 151 151 151 153 155 159 162 165 170 182 190
183 111 262 165 138 145 149 129 131 134 127 134 133 132 151 159 147 141 138 137 140 139 141 142 144 143 146 148 148 150 153 153 153 153 153 153 155 158 160 163 164 167 169 173 178 185 192 205 215
164 78 229 192 157 165 149 121 120 109 122 141 125 133 148 149 143 140 138 139 145 148 153 152 149 150 151 152 156 157 158 160 161 162 160 159 159 163 170 176 178 180 185 190 196 203 214 227 235
159 174 222 201 161 163 151 136 136 115 115 110 107 121 140 146 148 152 154 156 160 164 167 166 163 161 161 163 157 161 163 166 167 168 168 168 168 177 183 189 193 194 198 204 209 217 225 237 244
185 199 228 203 158 158 153 147 135 130 136 148 145 147 151 152 156 160 163 166 169 170 170 171 173 171 169 164 159 165 168 171 177 181 181 179 180 186 188 190 197 200 206 210 216 227 230 234 239
205 232 207 199 154 153 160 149 134 146 162 158 152 153 155 160 164 167 167 168 168 170 175 174 174 172 174 167 169 170 174 181 186 192 190 181 180 185 186 188 191 197 203 203 215 225 229 234 241
356 301 284 231 167 165 148 147 133 141 144 148 150 155 161 165 169 170 168 166 165 170 175 176 175 172 171 167 177 175 182 188 192 192 192 187 182 187 191 194 199 203 204 205 213 222 225 234 240
282 309 307 293 275 166 138 133 116 146 147 152 158 164 168 171 170 168 170 170 168 169 168 169 170 170 166 169 176 175 180 185 187 192 196 193 187 183 184 187 194 203 203 204 205 211 217 228 233
5 343 326 319 29 164 121 120 154 155 154 159 165 169 172 175 173 174 176 173 170 169 166 168 170 169 169 172 178 177 184 182 186 194 197 195 189 183 179 185 197 204 202 200 203 215 210 224 230
26 21 316 291 247 182 125 168 174 160 161 166 171 173 176 179 179 178 175 172 170 168 166 172 173 171 174 176 181 180 184 183 190 192 194 197 194 189 180 188 204 202 192 187 191 201 211 241 241
4 268 267 285 255 170 134 180 178 172 170 173 176 177 177 178 182 180 177 174 172 170 169 172 170 173 179 179 178 178 178 182 187 187 188 195 195 191 185 194 204 196 183 189 205 197 196 226 246
248 256 266 274 275 208 194 194 176 183 181 181 180 179 180 183 186 181 176 174 172 172 171 171 171 176 176 173 172 172 175 189 183 183 188 191 190 189 186 194 202 186 173 189 199 198 205 216 232
224 250 271 277 273 250 234 201 184 189 189 183 181 180 184 187 180 174 174 173 170 170 170 170 172 177 172 171 175 178 185 190 187 191 191 190 190 185 176 189 191 185 185 200 198 190 209 242 204
246 273 280 289 284 261 242 236 193 190 192 190 185 183 183 179 172 175 174 174 176 176 176 174 176 178 178 182 181 179 172 185 190 196 190 195 194 189 182 177 184 188 189 195 193 178 176 240 178
253 238 251 267 313 351 49 341 242 219 193 196 192 185 182 180 180 179 178 179 179 182 181 181 180 180 181 179 170 166 144 156 192 204 200 204 195 192 184 178 178 184 185 200 206 186 173 204 237
254 243 215 222 30 296 127 238 276 244 197 198 197 185 187 183 180 181 180 181 184 187 184 181 180 181 183 178 176 175 182 192 202 199 199 205 198 192 190 183 181 185 185 194 209 193 184 176 215
236 241 205 198 156 308 315 147 278 239 215 218 197 186 190 186 181 186 187 186 185 184 183 183 181 183 184 183 184 184 194 199 195 189 193 204 209 203 197 192 189 195 196 201 205 199 195 187 193
217 23 16 42 79 260 241 174 259 224 216 212 206 196 193 193 190 189 187 181 182 182 183 181 182 187 187 186 186 190 195 194 189 193 197 202 208 213 211 201 199 202 202 206 209 207 205 202 199
79 86 25 351 353 249 240 158 238 231 209 200 201 203 196 190 191 187 182 183 184 183 184 184 186 190 189 188 193 196 197 197 199 200 199 197 201 209 215 210 205 208 209 208 207 207 216 210 204
203 147 165 202 229 268 305 200 235 217 202 181 175 182 177 184 187 182 184 187 187 186 186 186 189 193 193 194 196 199 197 200 205 204 201 201 203 208 208 206 206 206 204 211 208 210 216 213 211
199 195 177 159 201 240 279 281 309 324 37 95 146 148 158 173 181 182 182 182 185 188 191 190 190 193 194 196 195 196 198 198 203 203 202 203 206 209 207 207 207 208 206 207 202 214 219 215 218
177 169 100 124 160 232 278 252 231 252 235 184 163 142 148 176 181 182 181 181 186 190 192 189 190 193 193 193 196 199 197 196 198 197 199 201 204 209 200 204 205 206 207 205 204 215 217 212 225
358 73 114 134 159 166 233 264 222 193 181 171 176 152 159 171 178 183 184 180 182 178 177 183 189 191 192 195 197 197 195 195 196 197 200 205 206 202 199 200 198 200 204 204 202 211 207 210 225
173 175 145 161 234 177 181 256 269 179 170 163 153 131 120 115 140 174 172 170 173 178 181 183 184 190 193 192 190 192 188 188 194 199 202 203 204 205 203 199 196 202 204 202 203 212 210 209 220
Height
1499 1499 1500 1502 1503 1509 1508 1499 1492 1492 1494 1495 1494 1496 1499 1504 1508 1517 1515 1515 1517 1517 1519 1520 1521 1522 1524 1525 1526 1528 1530 1531 1533 1535 1537 1538 1540 1542 1543 1545 1546 1547 1548 1549 1550 1551 1552 1553 1554
1499 1500 1502 1502 1508 1518 1510 1496 1494 1492 1495 1495 1497 1499 1501 1507 1508 1511 1514 1516 1518 1519 1520 1521 1523 1524 1525 1527 1528 1530 1532 1534 1535 1537 1539 1540 1542 1543 1545 1546 1547 1548 1549 1550 1551 1552 1553 1554 1555
1500 1500 1502 1503 1509 1513 1507 1496 1493 1494 1494 1494 1498 1502 1505 1509 1511 1512 1515 1517 1519 1520 1522 1523 1524 1526 1527 1529 1531 1532 1534 1536 1537 1539 1540 1542 1543 1544 1546 1547 1548 1549 1550 1551 1552 1553 1554 1555 1556
1500 1502 1503 1507 1507 1498 1494 1492 1492 1494 1496 1497 1499 1504 1508 1511 1511 1513 1516 1518 1520 1521 1523 1525 1526 1528 1529 1531 1532 1534 1535 1537 1539 1541 1542 1543 1545 1546 1547 1548 1549 1550 1551 1552 1553 1554 1555 1556 1557
1500 1502 1506 1509 1501 1492 1489 1489 1491 1492 1496 1499 1500 1506 1511 1513 1513 1515 1517 1519 1521 1522 1524 1526 1528 1529 1531 1532 1534 1535 1537 1539 1540 1542 1543 1544 1546 1547 1548 1549 1550 1551 1552 1553 1554 1555 1556 1557 1558
1501 1502 1512 1513 1501 1492 1490 1489 1491 1494 1499 1501 1503 1507 1513 1515 1515 1517 1519 1521 1523 1524 1526 1528 1530 1531 1532 1534 1535 1537 1538 1540 1542 1543 1544 1546 1547 1548 1549 1550 1551 1552 1553 1554 1555 1556 1557 1558 1559
1501 1503 1509 1505 1500 1495 1491 1490 1491 1494 1498 1501 1502 1507 1514 1516 1517 1518 1521 1522 1524 1526 1527 1529 1531 1532 1534 1535 1537 1538 1540 1541 1543 1544 1545 1547 1548 1549 1550 1551 1552 1553 1554 1555 1556 1557 1558 1558 1559
1498 1501 1504 1502 1499 1496 1490 1490 1492 1493 1497 1501 1502 1505 1511 1515 1517 1520 1522 1524 1525 1527 1528 1530 1532 1533 1535 1536 1538 1539 1541 1542 1544 1545 1546 1548 1549 1550 1551 1552 1553 1554 1555 1555 1556 1557 1558 1559 1559
1498 1505 1507 1500 1496 1493 1489 1489 1493 1494 1497 1501 1502 1503 1507 1513 1517 1520 1523 1525 1526 1528 1529 1531 1533 1534 1536 1537 1539 1540 1542 1543 1545 1546 1547 1548 1549 1550 1551 1552 1554 1554 1555 1556 1557 1557 1558 1559 1560
1495 1504 1497 1486 1484 1486 1487 1488 1492 1496 1498 1501 1504 1507 1510 1513 1517 1519 1521 1523 1525 1527 1529 1531 1533 1534 1536 1538 1540 1541 1542 1544 1545 1546 1548 1549 1550 1551 1552 1553 1554 1555 1555 1556 1557 1558 1558 1559 1560
1490 1492 1484 1481 1481 1482 1485 1487 1488 1493 1499 1500 1501 1506 1510 1514 1516 1518 1520 1522 1525 1527 1529 1531 1533 1535 1536 1538 1540 1542 1543 1545 1546 1547 1548 1549 1550 1551 1552 1553 1554 1555 1555 1556 1557 1558 1558 1559 1560
1486 1483 1481 1480 1481 1482 1483 1485 1488 1490 1493 1497 1499 1503 1508 1513 1515 1517 1519 1522 1525 1527 1529 1531 1533 1535 1537 1539 1540 1542 1543 1545 1546 1547 1548 1549 1550 1551 1552 1553 1554 1554 1555 1556 1557 1557 1558 1559 1559
1483 1482 1480 1479 1480 1480 1482 1484 1486 1491 1493 1498 1502 1505 1508 1511 1515 1518 1520 1522 1524 1526 1528 1531 1533 1535 1537 1539 1540 1542 1543 1545 1546 1547 1548 1549 1550 1551 1552 1553 1553 1554 1555 1555 1556 1556 1557 1558 1558
1483 1480 1479 1478 1478 1480 1481 1485 1487 1493 1494 1498 1501 1504 1507 1510 1513 1516 1519 1521 1523 1525 1528 1530 1532 1534 1536 1538 1540 1541 1543 1544 1546 1547 1548 1549 1550 1551 1551 1552 1553 1553 1554 1555 1555 1556 1556 1557 1557
1483 1484 1482 1479 1478 1479 1482 1490 1488 1490 1494 1497 1500 1503 1506 1509 1512 1514 1516 1519 1522 1524 1527 1530 1532 1534 1536 1538 1540 1541 1542 1544 1545 1546 1547 1549 1550 1551 1551 1552 1552 1553 1553 1554 1554 1555 1555 1556 1556
1486 1492 1496 1483 1479 1480 1486 1499 1490 1491 1493 1495 1498 1501 1504 1508 1510 1512 1515 1518 1521 1523 1526 1529 1531 1534 1536 1537 1539 1541 1542 1543 1544 1545 1546 1548 1549 1550 1551 1551 1551 1552 1552 1552 1553 1553 1554 1555 1555
1496 1504 1501 1489 1479 1480 1485 1493 1488 1490 1491 1493 1495 1498 1501 1505 1509 1511 1513 1516 1519 1522 1525 1528 1530 1532 1535 1537 1539 1540 1541 1542 1543 1544 1545 1547 1547 1548 1549 1550 1550 1551 1551 1551 1552 1552 1553 1553 1554
1505 1502 1497 1492 1480 1480 1484 1487 1486 1488 1489 1490 1493 1496 1498 1501 1504 1508 1512 1515 1518 1521 1523 1526 1529 1531 1534 1536 1538 1539 1540 1541 1542 1543 1544 1545 1546 1547 1547 1548 1549 1549 1549 1550 1550 1551 1552 1552 1553
1490 1494 1496 1487 1478 1481 1483 1484 1484 1486 1488 1489 1491 1494 1496 1498 1502 1507 1510 1513 1516 1519 1522 1524 1526 1529 1531 1533 1535 1537 1538 1540 1541 1542 1543 1544 1545 1546 1546 1547 1547 1548 1548 1548 1549 1550 1550 1551 1551
1487 1494 1493 1484 1476 1480 1483 1483 1480 1481 1483 1484 1485 1488 1492 1497 1501 1505 1508 1511 1514 1516 1519 1522 1524 1527 1529 1531 1533 1536 1537 1538 1540 1541 1541 1542 1543 1544 1545 1545 1546 1546 1546 1547 1547 1548 1548 1549 1550
1487 1491 1489 1487 1480 1479 1485 1492 1486 1481 1482 1484 1485 1486 1488 1492 1496 1500 1504 1507 1510 1513 1516 1518 1521 1524 1527 1529 1532 1534 1536 1537 1538 1538 1539 1540 1541 1542 1543 1543 1544 1544 1545 1545 1546 1546 1547 1547 1548
1489 1478 1478 1482 1493 1500 1493 1513 1496 1485 1485 1485 1486 1487 1488 1491 1493 1496 1499 1503 1506 1509 1512 1516 1519 1522 1524 1527 1529 1531 1532 1533 1534 1536 1537 1539 1540 1540 1541 1541 1542 1542 1543 1543 1544 1544 1545 1545 1546
1477 1471 1475 1479 1490 1501 1497 1510 1504 1489 1490 1486 1484 1485 1486 1488 1490 1492 1495 1498 1502 1506 1509 1513 1516 1519 1522 1524 1526 1528 1530 1531 1533 1534 1536 1537 1537 1538 1539 1539 1540 1540 1541 1541 1542 1542 1543 1543 1544
1467 1474 1480 1487 1499 1514 1500 1507 1508 1493 1487 1483 1481 1482 1482 1484 1487 1489 1493 1497 1500 1504 1507 1510 1513 1515 1518 1521 1523 1525 1527 1529 1530 1531 1532 1533 1534 1535 1536 1537 1537 1538 1538 1539 1539 1540 1540 1540 1541
1471 1492 1514 1517 1524 1517 1497 1501 1501 1481 1476 1476 1476 1476 1477 1481 1484 1487 1491 1494 1496 1500 1502 1506 1509 1512 1514 1517 1519 1521 1524 1526 1527 1528 1529 1530 1531 1532 1533 1534 1534 1535 1536 1536 1537 1537 1537 1538 1538
1474 1487 1513 1525 1525 1514 1497 1501 1488 1474 1472 1471 1471 1472 1474 1478 1480 1482 1485 1488 1491 1495 1498 1501 1504 1507 1511 1513 1515 1518 1521 1522 1524 1525 1526 1527 1528 1529 1530 1531 1531 1532 1533 1534 1534 1534 1535 1535 1535
1473 1480 1483 1502 1506 1513 1506 1494 1481 1472 1470 1469 1470 1470 1471 1473 1476 1479 1481 1484 1487 1490 1493 1496 1499 1503 1506 1509 1512 1514 1517 1518 1520 1522 1523 1523 1524 1526 1527 1528 1528 1529 1530 1531 1531 1531 1532 1532 1532
1461 1469 1488 1502 1515 1520 1508 1499 1494 1479 1475 1471 1469 1469 1470 1472 1473 1476 1478 1481 1484 1486 1489 1492 1496 1499 1501 1505 1508 1510 1512 1515 1516 1518 1519 1520 1521 1522 1523 1524 1525 1526 1526 1527 1528 1528 1528 1529 1529
1466 1472 1482 1497 1500 1514 1517 1503 1473 1472 1469 1469 1468 1468 1468 1469 1471 1473 1475 1477 1480 1483 1486 1489 1492 1495 1498 1501 1503 1506 1508 1511 1513 1514 1515 1516 1517 1519 1519 1520 1521 1521 1522 1523 1524 1524 1525 1525 1525
1462 1468 1479 1495 1499 1501 1507 1498 1463 1464 1464 1465 1465 1466 1467 1467 1470 1471 1473 1475 1478 1480 1482 1484 1487 1491 1494 1496 1499 1502 1504 1506 1508 1510 1511 1512 1513 1514 1515 1516 1517 1517 1518 1519 1520 1520 1520 1521 1521